This is the latest recevied weather packets stored in our database for station/object AJ5AG. If no packets are shown the sender has not sent any weather packets the latest 10 day(s).
| Time | Temp. | Humidity | Pressure | Rain* | Wind** | Luminosity | Snow |
|---|---|---|---|---|---|---|---|
| 1778110568 | 23.33° C | 81% | 1012.8 hPa | 0 mm | - | 68 W/m² | - |
| 1778110265 | 23.33° C | 81% | 1012.8 hPa | 0 mm | - | 62 W/m² | - |
| 1778109961 | 23.33° C | 81% | 1012.5 hPa | 0 mm | - | 63 W/m² | - |
| 1778109662 | 23.33° C | 81% | 1012.4 hPa | 0 mm | - | 35 W/m² | - |
| 1778109360 | 23.33° C | 82% | 1012.4 hPa | 0 mm | - | 31 W/m² | - |
| 1778109058 | 23.89° C | 81% | 1012.4 hPa | 0 mm | - | 24 W/m² | - |
| 1778108754 | 23.89° C | 81% | 1012.3 hPa | 0 mm | - | 67 W/m² | - |
| 1778108451 | 23.89° C | 81% | 1012.3 hPa | 0 mm | - | 79 W/m² | - |
| 1778108148 | 24.44° C | 82% | 1012.5 hPa | 0 mm | - | 56 W/m² | - |
| 1778107844 | 24.44° C | 81% | 1012.3 hPa | 0 mm | - | 36 W/m² | - |
| 1778107541 | 25° C | 81% | 1012.1 hPa | 0 mm | - | 28 W/m² | - |
| 1778107238 | 25.56° C | 79% | 1012 hPa | 0 mm | - | 28 W/m² | - |
| 1778106934 | 26.11° C | 78% | 1011.6 hPa | 0 mm | - | 47 W/m² | - |
| 1778106630 | 26.67° C | 80% | 1011.7 hPa | 0 mm | - | 55 W/m² | - |
| 1778106327 | 27.22° C | 79% | 1011.6 hPa | 0 mm | - | 58 W/m² | - |
| 1778106024 | 27.78° C | 80% | 1011.6 hPa | 0 mm | - | 45 W/m² | - |
| 1778105721 | 27.78° C | 80% | 1011.4 hPa | 0 mm | - | 37 W/m² | - |
| 1778105419 | 28.33° C | 79% | 1011.4 hPa | 0 mm | - | 87 W/m² | - |
| 1778105114 | 28.33° C | 77% | 1011.4 hPa | 0 mm | - | 118 W/m² | - |
| 1778104811 | 28.89° C | 78% | 1011.4 hPa | 0 mm | - | 124 W/m² | - |
| 1778104508 | 28.89° C | 77% | 1011.4 hPa | 0 mm | - | 154 W/m² | - |
| 1778104203 | 28.89° C | 79% | 1011.3 hPa | 0 mm | - | 207 W/m² | - |
| 1778103900 | 28.89° C | 77% | 1011.4 hPa | 0 mm | - | 217 W/m² | - |
| 1778103598 | 28.89° C | 76% | 1011.4 hPa | 0 mm | - | 111 W/m² | - |
| 1778103295 | 28.89° C | 76% | 1011.5 hPa | 0 mm | - | 181 W/m² | - |
* Rain latest hour (hover to see other rain measurements)
** Current wind speed in m/s (hover to see current wind gust speed)